LEJRLPFR

Guest
Details From LEJR - Jerez
To LPFR - Faro
Flight Number -
Tags generated
Created
Modified
Stats Distance 94 nm / 173 km
Max Altitude 0 ft / 0 m
Waypoints 3
Social Downloads 2
Likes 0
Share VATSIM

Download

Looking for another format? Having issues loading an existing format? Contact us
Advertisement - Login to hide

Notes

Basic altitude profile: - Ascent Rate: 2500ft/min - Ascent Speed: 250kts - Cruise Altitude: 35000ft - Cruise Speed: 420kts - Descent Rate: 1500ft/min - Descent Speed: 250kts Options: - Use NATs: yes - Use PACOTS: yes - Use low airways: yes - Use high airways: yes

Route

LEJR VFA LPFR

ID Type Via Altitude Latitude Longitude Leg Dist Tot Dist Heading (true) Name
O LEJR APT - 0 ft / 0 m 36.74462˚ -6.06011˚ - 0 nm - Jerez
VFA VOR - 0 ft / 0 m 37.01352˚ -7.97501˚ 93 nm 93 nm 281° / 279° FARO VOR-DME
O LPFR APT - 0 ft / 0 m 37.01534˚ -7.97233˚ 0 nm 93 nm 50° / 50° Faro

Altitude Profile

Advertisement - Login to hide

LEJR

Details ICAO LEJR (XRY)
Name Jerez
Region Spain
Timezone Europe/Madrid (UTC+2.0)
Stats Elevation 93 ft / 28 m (AMSL)
Location 36.744622° -6.060110°
Runways 2
Magnetic Variation 1.287° W

METAR

LEJR 231730Z 27007KT 230V320 CAVOK 24/15 Q1013

Decode

TAF

TAF AMD LEJR 231501Z 2315/2412 27009KT CAVOK TX26/2316Z TN14/2406Z PROB40 TEMPO 2323/2406 4000 TSRA SCT020CB PROB30 TEMPO 2406/2412 4000 SHRA SCT020TCU

Decode

Departure Runways

ID Width Length Bearing (true) Bearing (mag) Surface Threshold Offset Overrun Length
02 148 ft / 45 m 7,559 ft / 2,304 m 21.34° 22.63° Asphalt 0 ft / 0 m 0 ft / 0 m
03 148 ft / 45 m 7,559 ft / 2,304 m 21.34° 22.63° Asphalt 0 ft / 0 m 0 ft / 0 m
20 148 ft / 45 m 7,559 ft / 2,304 m 201.34° 202.63° Asphalt 0 ft / 0 m 0 ft / 0 m
21 148 ft / 45 m 7,559 ft / 2,304 m 201.34° 202.63° Asphalt 0 ft / 0 m 0 ft / 0 m

LPFR

Details ICAO LPFR (FAO)
Name Faro
Region Portugal
Timezone Europe/Lisbon (UTC+1.0)
Stats Elevation 24 ft / 7 m (AMSL)
Location 37.015336° -7.972327°
Runways 1
Magnetic Variation 1.883° W

METAR

LPFR 231730Z 26010KT 9999 FEW025 SCT040 19/14 Q1014

Decode

TAF

TAF LPFR 231100Z 2312/2412 25008KT CAVOK BECMG 2314/2316 9999 FEW025 SCT040 TEMPO 2314/2320 8000 SHRA BKN025 FEW030TCU BECMG 2318/2320 29008KT BECMG 2400/2402 VRB03KT TEMPO 2403/2412 8000 SHRA BKN020 FEW025TCU BECMG 2408/2410 25008KT

Decode

Destination Runways

ID Width Length Bearing (true) Bearing (mag) Surface Threshold Offset Overrun Length
10 148 ft / 45 m 8,148 ft / 2,484 m 100.08° 101.96° Asphalt 148 ft / 45 m 0 ft / 0 m
28 148 ft / 45 m 8,148 ft / 2,484 m 280.10° 281.98° Asphalt 148 ft / 45 m 0 ft / 0 m

Approach Navaids

Runway Type Ident Frequency Range Bearing (true) Bearing (mag) Slope Elevation
28 Localiser IIF 109.50 MHz 18 nm / 33 km 280.16° 282.05° - 24 ft / 7 m (AMSL)
28 Glidescope IIF 109.50 MHz 10 nm / 19 km 280.09° 281.97° 3.00° 24 ft / 7 m (AMSL)
28 DME IIF 109.50 MHz 18 nm / 33 km - - - 24 ft / 7 m (AMSL)

Popular Alternatives